Tracking 35055 objects as of 19-Aug-2026
HD Live streaming from Space Station
objects crossing your sky now

STARLINK-5915

Track STARLINK-5915 now!
10-day predictions
STARLINK-5915 is classified as:


NORAD ID: 55987
Int'l Code: 2023-042B
Launch date: March 24, 2022
Source: United States (US)
Launch site: AIR FORCE EASTERN TEST RANGE (AFETR)
Your satellite tracking list
Your tracking list is empty




NASA's NSSDC Master Catalog

Two Line Element Set (TLE):
1 55987U 23042B   26230.48354409  .00000436  00000-0  25354-4 0  9991
2 55987  43.0005 225.8916 0001022 269.6970  90.3764 15.27578637187618
Source of the keplerian elements: AFSPC